Time,TemperatureF,DewpointF,PressureIn,WindDirection,WindDirectionDegrees,WindSpeedMPH,WindSpeedGustMPH,Humidity,HourlyPrecipIn,Conditions,Clouds,dailyrainin,SoftwareType,DateUTC
2013-04-02 00:00:00,29.8,12.0,30.24,North,1,0.0,0.0,47,0.00,CLR,,0.00,WeatherDisplay:10.37,2013-04-02 05:00:00,
2013-04-02 00:05:00,29.8,12.0,30.24,North,1,0.0,0.0,47,0.00,CLR,,0.00,WeatherDisplay:10.37,2013-04-02 05:05:00,
2013-04-02 00:10:00,29.7,11.9,30.24,North,1,0.0,0.0,47,0.00,CLR,,0.00,WeatherDisplay:10.37,2013-04-02 05:10:00,
2013-04-02 00:15:00,29.7,11.9,30.24,North,1,0.0,0.0,47,0.00,CLR,,0.00,WeatherDisplay:10.37,2013-04-02 05:15:00,
2013-04-02 00:20:00,29.5,12.2,30.24,North,1,0.0,0.0,48,0.00,CLR,,0.00,WeatherDisplay:10.37,2013-04-02 05:20:00,
2013-04-02 00:25:00,29.3,12.0,30.24,North,1,0.0,0.0,48,0.00,CLR,,0.00,WeatherDisplay:10.37,2013-04-02 05:25:00,
2013-04-02 00:30:00,29.3,11.5,30.24,North,1,0.0,0.0,47,0.00,CLR,,0.00,WeatherDisplay:10.37,2013-04-02 05:30:00,
2013-04-02 00:35:00,29.3,11.5,30.24,North,1,0.0,0.0,47,0.00,CLR,,0.00,WeatherDisplay:10.37,2013-04-02 05:35:00,
2013-04-02 00:40:00,29.3,12.0,30.24,North,1,0.0,0.0,48,0.00,CLR,,0.00,WeatherDisplay:10.37,2013-04-02 05:40:00,
2013-04-02 00:45:00,29.3,12.0,30.24,North,1,0.0,0.0,48,0.00,CLR,,0.00,WeatherDisplay:10.37,2013-04-02 05:45:00,
2013-04-02 00:50:00,29.3,12.0,30.23,North,1,0.0,0.0,48,0.00,CLR,,0.00,WeatherDisplay:10.37,2013-04-02 05:50:00,
2013-04-02 00:55:00,29.1,11.8,30.23,North,1,0.0,0.0,48,0.00,CLR,,0.00,WeatherDisplay:10.37,2013-04-02 05:55:00,
2013-04-02 01:00:00,29.1,11.8,30.23,North,1,0.0,0.0,48,0.00,CLR,,0.00,WeatherDisplay:10.37,2013-04-02 06:00:00,
2013-04-02 01:05:00,28.9,11.7,30.24,North,1,0.0,0.0,48,0.00,CLR,,0.00,WeatherDisplay:10.37,2013-04-02 06:05:00,
2013-04-02 01:10:00,28.8,11.5,30.24,North,1,0.0,0.0,48,0.00,CLR,,0.00,WeatherDisplay:10.37,2013-04-02 06:10:00,
2013-04-02 01:15:00,28.9,11.7,30.24,North,1,0.0,0.0,48,0.00,CLR,,0.00,WeatherDisplay:10.37,2013-04-02 06:15:00,
2013-04-02 01:20:00,28.8,11.5,30.24,North,1,0.0,0.0,48,0.00,CLR,,0.00,WeatherDisplay:10.37,2013-04-02 06:20:00,
2013-04-02 01:25:00,28.8,11.5,30.24,North,1,0.0,0.0,48,0.00,CLR,,0.00,WeatherDisplay:10.37,2013-04-02 06:25:00,
2013-04-02 01:30:00,28.8,11.5,30.24,North,1,0.0,0.0,48,0.00,CLR,,0.00,WeatherDisplay:10.37,2013-04-02 06:30:00,
2013-04-02 01:35:00,28.8,11.5,30.24,North,1,0.0,0.0,48,0.00,CLR,,0.00,WeatherDisplay:10.37,2013-04-02 06:35:00,
2013-04-02 01:40:00,28.8,12.0,30.24,North,1,0.0,0.0,49,0.00,CLR,,0.00,WeatherDisplay:10.37,2013-04-02 06:40:00,
2013-04-02 01:45:00,28.8,12.0,30.24,North,1,0.0,0.0,49,0.00,CLR,,0.00,WeatherDisplay:10.37,2013-04-02 06:45:00,
2013-04-02 01:50:00,28.6,11.8,30.25,North,1,0.0,0.0,49,0.00,CLR,,0.00,WeatherDisplay:10.37,2013-04-02 06:50:00,
2013-04-02 01:55:00,28.6,11.8,30.25,North,1,0.0,0.0,49,0.00,CLR,,0.00,WeatherDisplay:10.37,2013-04-02 06:55:00,
2013-04-02 02:00:00,28.4,11.6,30.25,North,1,0.0,0.0,49,0.00,CLR,,0.00,WeatherDisplay:10.37,2013-04-02 07:00:00,
2013-04-02 02:05:00,28.4,11.6,30.25,North,1,0.0,0.0,49,0.00,CLR,,0.00,WeatherDisplay:10.37,2013-04-02 07:05:00,
2013-04-02 02:10:00,28.2,11.5,30.25,North,1,0.0,0.0,49,0.00,CLR,,0.00,WeatherDisplay:10.37,2013-04-02 07:10:00,
2013-04-02 02:15:00,28.2,11.9,30.25,North,1,0.0,0.0,50,0.00,CLR,,0.00,WeatherDisplay:10.37,2013-04-02 07:15:00,
2013-04-02 02:20:00,28.2,11.9,30.25,North,1,0.0,0.0,50,0.00,CLR,,0.00,WeatherDisplay:10.37,2013-04-02 07:20:00,
2013-04-02 02:25:00,28.2,11.9,30.25,North,1,0.0,0.0,50,0.00,CLR,,0.00,WeatherDisplay:10.37,2013-04-02 07:25:00,
2013-04-02 02:30:00,28.0,11.8,30.24,North,1,0.0,0.0,50,0.00,CLR,,0.00,WeatherDisplay:10.37,2013-04-02 07:30:00,
2013-04-02 02:35:00,28.0,11.8,30.24,North,1,0.0,0.0,50,0.00,CLR,,0.00,WeatherDisplay:10.37,2013-04-02 07:35:00,
2013-04-02 02:40:00,28.0,11.8,30.24,North,1,0.0,0.0,50,0.00,CLR,,0.00,WeatherDisplay:10.37,2013-04-02 07:40:00,
2013-04-02 02:45:00,28.0,11.8,30.24,North,1,0.0,0.0,50,0.00,CLR,,0.00,WeatherDisplay:10.37,2013-04-02 07:45:00,
2013-04-02 02:50:00,28.0,11.8,30.24,North,1,0.0,0.0,50,0.00,CLR,,0.00,WeatherDisplay:10.37,2013-04-02 07:50:00,
2013-04-02 02:55:00,27.9,11.6,30.24,North,1,0.0,0.0,50,0.00,CLR,,0.00,WeatherDisplay:10.37,2013-04-02 07:55:00,
2013-04-02 03:00:00,27.9,12.1,30.24,North,1,0.0,0.0,51,0.00,CLR,,0.00,WeatherDisplay:10.37,2013-04-02 08:00:00,
2013-04-02 03:05:00,27.7,11.9,30.24,North,1,0.0,0.0,51,0.00,CLR,,0.00,WeatherDisplay:10.37,2013-04-02 08:05:00,
2013-04-02 03:10:00,27.5,11.7,30.24,North,1,0.0,0.0,51,0.00,CLR,,0.00,WeatherDisplay:10.37,2013-04-02 08:10:00,
2013-04-02 03:15:00,27.5,11.7,30.24,North,1,0.0,0.0,51,0.00,CLR,,0.00,WeatherDisplay:10.37,2013-04-02 08:15:00,
2013-04-02 03:20:00,27.5,11.7,30.24,North,1,0.0,0.0,51,0.00,CLR,,0.00,WeatherDisplay:10.37,2013-04-02 08:20:00,
2013-04-02 03:25:00,27.5,11.7,30.24,North,1,0.0,0.0,51,0.00,CLR,,0.00,WeatherDisplay:10.37,2013-04-02 08:25:00,
2013-04-02 03:30:00,27.7,11.9,30.25,North,1,0.0,0.0,51,0.00,CLR,,0.00,WeatherDisplay:10.37,2013-04-02 08:30:00,
2013-04-02 03:35:00,27.7,11.9,30.24,North,1,0.0,0.0,51,0.00,CLR,,0.00,WeatherDisplay:10.37,2013-04-02 08:35:00,
2013-04-02 03:40:00,27.5,11.7,30.24,North,1,0.0,0.0,51,0.00,CLR,,0.00,WeatherDisplay:10.37,2013-04-02 08:40:00,
2013-04-02 03:45:00,27.5,11.7,30.25,North,1,0.0,0.0,51,0.00,CLR,,0.00,WeatherDisplay:10.37,2013-04-02 08:45:00,
2013-04-02 03:50:00,27.5,12.2,30.24,North,1,0.0,0.0,52,0.00,CLR,,0.00,WeatherDisplay:10.37,2013-04-02 08:50:00,
2013-04-02 03:55:00,27.5,12.2,30.24,North,1,0.0,0.0,52,0.00,CLR,,0.00,WeatherDisplay:10.37,2013-04-02 08:55:00,
2013-04-02 04:00:00,27.5,12.2,30.24,North,1,0.0,0.0,52,0.00,CLR,,0.00,WeatherDisplay:10.37,2013-04-02 09:00:00,
2013-04-02 04:05:00,27.3,12.0,30.24,North,1,0.0,0.0,52,0.00,CLR,,0.00,WeatherDisplay:10.37,2013-04-02 09:05:00,
2013-04-02 04:10:00,27.3,12.0,30.24,North,1,0.0,0.0,52,0.00,CLR,,0.00,WeatherDisplay:10.37,2013-04-02 09:10:00,
2013-04-02 04:15:00,27.3,12.0,30.24,North,1,0.0,0.0,52,0.00,CLR,,0.00,WeatherDisplay:10.37,2013-04-02 09:15:00,
2013-04-02 04:20:00,27.3,12.0,30.24,North,1,0.0,0.0,52,0.00,CLR,,0.00,WeatherDisplay:10.37,2013-04-02 09:20:00,
2013-04-02 04:25:00,27.5,12.2,30.24,North,1,0.0,0.0,52,0.00,CLR,,0.00,WeatherDisplay:10.37,2013-04-02 09:25:00,
2013-04-02 04:30:00,27.5,12.2,30.24,North,1,0.0,0.0,52,0.00,CLR,,0.00,WeatherDisplay:10.37,2013-04-02 09:30:00,
2013-04-02 04:35:00,27.7,12.3,30.25,North,1,0.0,0.0,52,0.00,CLR,,0.00,WeatherDisplay:10.37,2013-04-02 09:35:00,
2013-04-02 04:40:00,27.9,12.5,30.24,North,1,0.0,0.0,52,0.00,CLR,,0.00,WeatherDisplay:10.37,2013-04-02 09:40:00,
2013-04-02 04:45:00,27.9,12.5,30.25,North,1,0.0,0.0,52,0.00,CLR,,0.00,WeatherDisplay:10.37,2013-04-02 09:45:00,
2013-04-02 04:50:00,28.0,12.7,30.25,North,1,0.0,0.0,52,0.00,CLR,,0.00,WeatherDisplay:10.37,2013-04-02 09:50:00,
2013-04-02 04:55:00,28.0,12.7,30.25,North,1,0.0,0.0,52,0.00,CLR,,0.00,WeatherDisplay:10.37,2013-04-02 09:55:00,
2013-04-02 05:00:00,28.0,12.7,30.26,North,1,0.0,0.0,52,0.00,CLR,,0.00,WeatherDisplay:10.37,2013-04-02 10:00:00,
2013-04-02 05:05:00,28.0,12.2,30.26,North,1,0.0,0.0,51,0.00,CLR,,0.00,WeatherDisplay:10.37,2013-04-02 10:05:00,
2013-04-02 05:10:00,28.0,12.2,30.26,North,1,0.0,0.0,51,0.00,CLR,,0.00,WeatherDisplay:10.37,2013-04-02 10:10:00,
2013-04-02 05:15:00,28.0,12.2,30.26,North,1,0.0,0.0,51,0.00,CLR,,0.00,WeatherDisplay:10.37,2013-04-02 10:15:00,
2013-04-02 05:20:00,28.0,12.2,30.26,North,1,0.0,0.0,51,0.00,CLR,,0.00,WeatherDisplay:10.37,2013-04-02 10:20:00,
2013-04-02 05:25:00,28.0,12.2,30.26,North,1,0.0,0.0,51,0.00,CLR,,0.00,WeatherDisplay:10.37,2013-04-02 10:25:00,
2013-04-02 05:30:00,28.0,12.2,30.26,North,1,0.0,0.0,51,0.00,CLR,,0.00,WeatherDisplay:10.37,2013-04-02 10:30:00,
2013-04-02 05:35:00,28.0,12.2,30.26,North,1,0.0,0.0,51,0.00,CLR,,0.00,WeatherDisplay:10.37,2013-04-02 10:35:00,
2013-04-02 05:40:00,28.0,12.2,30.26,North,1,0.0,0.0,51,0.00,CLR,,0.00,WeatherDisplay:10.37,2013-04-02 10:40:00,
2013-04-02 05:45:00,27.9,12.5,30.26,North,1,0.0,0.0,52,0.00,CLR,,0.00,WeatherDisplay:10.37,2013-04-02 10:45:00,
2013-04-02 05:50:00,27.9,12.5,30.25,North,1,0.0,0.0,52,0.00,CLR,,0.00,WeatherDisplay:10.37,2013-04-02 10:50:00,
2013-04-02 05:55:00,27.9,12.5,30.25,North,1,0.0,0.0,52,0.00,CLR,,0.00,WeatherDisplay:10.37,2013-04-02 10:55:00,
2013-04-02 06:00:00,27.7,12.3,30.25,North,1,0.0,0.0,52,0.00,CLR,,0.00,WeatherDisplay:10.37,2013-04-02 11:00:00,
2013-04-02 06:05:00,27.7,12.3,30.27,North,1,0.0,0.0,52,0.00,CLR,,0.00,WeatherDisplay:10.37,2013-04-02 11:05:00,
2013-04-02 06:10:00,27.5,12.2,30.27,North,1,0.0,0.0,52,0.00,CLR,,0.00,WeatherDisplay:10.37,2013-04-02 11:10:00,
2013-04-02 06:15:00,27.5,12.2,30.27,North,1,0.0,0.0,52,0.00,CLR,,0.00,WeatherDisplay:10.37,2013-04-02 11:15:00,
2013-04-02 06:20:00,27.5,12.2,30.27,North,1,0.0,0.0,52,0.00,CLR,,0.00,WeatherDisplay:10.37,2013-04-02 11:20:00,
2013-04-02 06:25:00,27.3,12.0,30.27,North,1,0.0,0.0,52,0.00,CLR,,0.00,WeatherDisplay:10.37,2013-04-02 11:25:00,
2013-04-02 06:30:00,27.3,12.0,30.27,North,1,0.0,0.0,52,0.00,CLR,,0.00,WeatherDisplay:10.37,2013-04-02 11:30:00,
2013-04-02 06:35:00,27.1,11.8,30.26,North,1,0.0,0.0,52,0.00,CLR,,0.00,WeatherDisplay:10.37,2013-04-02 11:35:00,
2013-04-02 06:40:00,27.1,12.3,30.27,North,1,0.0,0.0,53,0.00,CLR,,0.00,WeatherDisplay:10.37,2013-04-02 11:40:00,
2013-04-02 06:45:00,27.0,12.1,30.27,North,1,0.0,0.0,53,0.00,CLR,,0.00,WeatherDisplay:10.37,2013-04-02 11:45:00,
2013-04-02 06:50:00,26.8,11.9,30.26,North,1,0.0,0.0,53,0.00,CLR,,0.00,WeatherDisplay:10.37,2013-04-02 11:50:00,
2013-04-02 06:55:00,26.6,11.7,30.27,North,1,0.0,0.0,53,0.00,CLR,,0.00,WeatherDisplay:10.37,2013-04-02 11:55:00,
2013-04-02 07:00:00,26.2,11.4,30.27,North,1,0.0,0.0,53,0.00,CLR,,0.00,WeatherDisplay:10.37,2013-04-02 12:00:00,
2013-04-02 07:05:00,26.2,11.8,30.27,North,1,0.0,0.0,54,0.00,CLR,,0.00,WeatherDisplay:10.37,2013-04-02 12:05:00,
2013-04-02 07:10:00,26.2,11.8,30.27,North,1,0.0,0.0,54,0.00,CLR,,0.00,WeatherDisplay:10.37,2013-04-02 12:10:00,
2013-04-02 07:15:00,26.2,11.8,30.28,North,1,0.0,0.0,54,0.00,CLR,,0.00,WeatherDisplay:10.37,2013-04-02 12:15:00,
2013-04-02 07:20:00,26.2,11.8,30.28,North,1,0.0,0.0,54,0.00,CLR,,0.00,WeatherDisplay:10.37,2013-04-02 12:20:00,
2013-04-02 07:25:00,26.2,11.8,30.28,North,1,0.0,0.0,54,0.00,CLR,,0.00,WeatherDisplay:10.37,2013-04-02 12:25:00,
2013-04-02 07:30:00,26.2,12.2,30.28,North,1,0.0,0.0,55,0.00,CLR,,0.00,WeatherDisplay:10.37,2013-04-02 12:30:00,
2013-04-02 07:35:00,26.2,12.2,30.28,North,1,0.0,0.0,55,0.00,CLR,,0.00,WeatherDisplay:10.37,2013-04-02 12:35:00,
2013-04-02 07:40:00,26.2,12.2,30.27,North,1,0.0,0.0,55,0.00,CLR,,0.00,WeatherDisplay:10.37,2013-04-02 12:40:00,
2013-04-02 07:45:00,26.2,12.2,30.27,North,1,0.0,0.0,55,0.00,CLR,,0.00,WeatherDisplay:10.37,2013-04-02 12:45:00,
2013-04-02 07:50:00,26.2,12.2,30.27,North,1,0.0,0.0,55,0.00,CLR,,0.00,WeatherDisplay:10.37,2013-04-02 12:50:00,
2013-04-02 07:55:00,26.6,12.6,30.27,North,1,0.0,0.0,55,0.00,CLR,,0.00,WeatherDisplay:10.37,2013-04-02 12:55:00,
2013-04-02 08:00:00,26.6,12.6,30.27,North,1,0.0,0.0,55,0.00,CLR,,0.00,WeatherDisplay:10.37,2013-04-02 13:00:00,
2013-04-02 08:05:00,26.8,13.2,30.27,North,1,0.0,0.0,56,0.00,CLR,,0.00,WeatherDisplay:10.37,2013-04-02 13:05:00,
2013-04-02 08:10:00,26.8,12.8,30.27,North,1,0.0,0.0,55,0.00,CLR,,0.00,WeatherDisplay:10.37,2013-04-02 13:10:00,
2013-04-02 08:15:00,27.1,13.1,30.27,North,1,0.0,0.0,55,0.00,CLR,,0.00,WeatherDisplay:10.37,2013-04-02 13:15:00,
2013-04-02 08:20:00,27.5,13.4,30.29,North,1,0.0,0.0,55,0.00,CLR,,0.00,WeatherDisplay:10.37,2013-04-02 13:20:00,
2013-04-02 08:25:00,28.0,13.9,30.29,North,1,0.0,0.0,55,0.00,CLR,,0.00,WeatherDisplay:10.37,2013-04-02 13:25:00,
2013-04-02 08:30:00,28.6,14.4,30.29,North,1,0.0,0.0,55,0.00,CLR,,0.00,WeatherDisplay:10.37,2013-04-02 13:30:00,
2013-04-02 08:35:00,28.8,14.6,30.29,North,1,0.0,0.0,55,0.00,CLR,,0.00,WeatherDisplay:10.37,2013-04-02 13:35:00,
2013-04-02 08:40:00,28.8,14.2,30.29,North,1,0.0,0.0,54,0.00,CLR,,0.00,WeatherDisplay:10.37,2013-04-02 13:40:00,
2013-04-02 08:45:00,28.9,14.4,30.29,North,1,0.0,0.0,54,0.00,CLR,,0.00,WeatherDisplay:10.37,2013-04-02 13:45:00,
2013-04-02 08:50:00,29.1,14.5,30.29,North,1,0.0,0.0,54,0.00,CLR,,0.00,WeatherDisplay:10.37,2013-04-02 13:50:00,
2013-04-02 08:55:00,29.3,14.7,30.30,North,1,0.0,0.0,54,0.00,CLR,,0.00,WeatherDisplay:10.37,2013-04-02 13:55:00,
2013-04-02 09:00:00,29.7,15.0,30.30,North,1,0.0,0.0,54,0.00,CLR,,0.00,WeatherDisplay:10.37,2013-04-02 14:00:00,
2013-04-02 09:05:00,29.8,15.2,30.29,North,1,0.0,0.0,54,0.00,CLR,,0.00,WeatherDisplay:10.37,2013-04-02 14:05:00,
2013-04-02 09:10:00,31.5,16.3,30.29,North,1,0.0,0.0,53,0.00,CLR,,0.00,WeatherDisplay:10.37,2013-04-02 14:10:00,
2013-04-02 09:15:00,31.6,16.0,30.29,North,1,0.0,0.0,52,0.00,CLR,,0.00,WeatherDisplay:10.37,2013-04-02 14:15:00,
2013-04-02 09:20:00,31.8,16.2,30.29,North,1,0.0,0.0,52,0.00,CLR,,0.00,WeatherDisplay:10.37,2013-04-02 14:20:00,
2013-04-02 09:25:00,32.4,16.7,30.29,North,1,0.0,0.0,52,0.00,CLR,,0.00,WeatherDisplay:10.37,2013-04-02 14:25:00,
2013-04-02 09:30:00,32.5,16.8,30.29,North,1,0.0,0.0,52,0.00,CLR,,0.00,WeatherDisplay:10.37,2013-04-02 14:30:00,
2013-04-02 09:35:00,33.6,17.4,30.29,North,1,0.0,0.0,51,0.00,CLR,,0.00,WeatherDisplay:10.37,2013-04-02 14:35:00,
2013-04-02 09:40:00,34.7,17.9,30.29,North,1,0.0,0.0,50,0.00,CLR,,0.00,WeatherDisplay:10.37,2013-04-02 14:40:00,
2013-04-02 09:45:00,35.6,18.3,30.29,North,1,0.0,0.0,49,0.00,CLR,,0.00,WeatherDisplay:10.37,2013-04-02 14:45:00,
2013-04-02 09:50:00,36.0,18.1,30.29,North,1,0.0,0.0,48,0.00,CLR,,0.00,WeatherDisplay:10.37,2013-04-02 14:50:00,
2013-04-02 09:55:00,37.0,19.1,30.29,North,1,0.0,0.0,48,0.00,CLR,,0.00,WeatherDisplay:10.37,2013-04-02 14:55:00,
2013-04-02 10:00:00,37.0,19.1,30.29,North,1,0.0,0.0,48,0.00,CLR,,0.00,WeatherDisplay:10.37,2013-04-02 15:00:00,
2013-04-02 10:05:00,38.7,20.1,30.30,North,1,0.0,0.0,47,0.00,CLR,,0.00,WeatherDisplay:10.37,2013-04-02 15:05:00,
2013-04-02 10:10:00,39.7,20.1,30.30,North,1,0.0,0.0,45,0.00,CLR,,0.00,WeatherDisplay:10.37,2013-04-02 15:10:00,
2013-04-02 10:15:00,40.1,19.9,30.30,North,1,0.0,0.0,44,0.00,CLR,,0.00,WeatherDisplay:10.37,2013-04-02 15:15:00,
2013-04-02 10:20:00,40.6,20.4,30.30,North,1,0.0,0.0,44,0.00,CLR,,0.00,WeatherDisplay:10.37,2013-04-02 15:20:00,
2013-04-02 10:25:00,41.2,20.3,30.29,North,1,0.0,0.0,43,0.00,CLR,,0.00,WeatherDisplay:10.37,2013-04-02 15:25:00,
2013-04-02 10:30:00,41.5,20.1,30.30,North,1,0.0,0.0,42,0.00,CLR,,0.00,WeatherDisplay:10.37,2013-04-02 15:30:00,
2013-04-02 10:35:00,41.7,20.3,30.29,North,1,0.0,0.0,42,0.00,CLR,,0.00,WeatherDisplay:10.37,2013-04-02 15:35:00,
2013-04-02 10:40:00,42.4,20.4,30.30,North,1,0.0,0.0,41,0.00,CLR,,0.00,WeatherDisplay:10.37,2013-04-02 15:40:00,
2013-04-02 10:45:00,43.7,21.5,30.30,North,1,0.0,0.0,41,0.00,CLR,,0.00,WeatherDisplay:10.37,2013-04-02 15:45:00,
2013-04-02 10:50:00,44.6,21.7,30.29,North,1,0.0,0.0,40,0.00,CLR,,0.00,WeatherDisplay:10.37,2013-04-02 15:50:00,
2013-04-02 10:55:00,45.1,22.2,30.29,North,1,0.0,0.0,40,0.00,CLR,,0.00,WeatherDisplay:10.37,2013-04-02 15:55:00,
2013-04-02 11:00:00,46.2,22.6,30.28,North,1,0.0,0.0,39,0.00,CLR,,0.00,WeatherDisplay:10.37,2013-04-02 16:00:00,
2013-04-02 11:05:00,46.9,23.2,30.29,North,1,0.0,0.0,39,0.00,CLR,,0.00,WeatherDisplay:10.37,2013-04-02 16:05:00,
2013-04-02 11:10:00,47.3,22.9,30.29,North,1,0.0,0.0,38,0.00,CLR,,0.00,WeatherDisplay:10.37,2013-04-02 16:10:00,
2013-04-02 11:15:00,47.8,22.8,30.29,North,1,0.0,0.0,37,0.00,CLR,,0.00,WeatherDisplay:10.37,2013-04-02 16:15:00,
2013-04-02 11:20:00,48.2,21.8,30.29,North,1,0.0,0.0,35,0.00,CLR,,0.00,WeatherDisplay:10.37,2013-04-02 16:20:00,
2013-04-02 11:25:00,48.4,22.0,30.29,North,1,0.0,0.0,35,0.00,CLR,,0.00,WeatherDisplay:10.37,2013-04-02 16:25:00,
2013-04-02 11:30:00,48.7,22.9,30.28,North,1,0.0,0.0,36,0.00,CLR,,0.00,WeatherDisplay:10.37,2013-04-02 16:30:00,
2013-04-02 11:36:00,49.6,22.4,30.28,North,1,0.0,0.0,34,0.00,CLR,,0.00,WeatherDisplay:10.37,2013-04-02 16:36:00,
2013-04-02 11:41:00,50.2,22.9,30.29,North,1,0.0,0.0,34,0.00,CLR,,0.00,WeatherDisplay:10.37,2013-04-02 16:41:00,
2013-04-02 11:47:00,50.7,22.6,30.28,North,1,0.0,0.0,33,0.00,CLR,,0.00,WeatherDisplay:10.37,2013-04-02 16:47:00,
2013-04-02 11:52:00,50.4,21.6,30.29,North,1,0.0,0.0,32,0.00,CLR,,0.00,WeatherDisplay:10.37,2013-04-02 16:52:00,
2013-04-02 11:57:00,49.8,21.1,30.29,North,1,0.0,0.0,32,0.00,CLR,,0.00,WeatherDisplay:10.37,2013-04-02 16:57:00,
2013-04-02 12:02:00,49.8,21.8,30.28,North,1,0.0,0.0,33,0.00,CLR,,0.00,WeatherDisplay:10.37,2013-04-02 17:02:00,
2013-04-02 12:07:00,50.4,21.6,30.28,North,1,0.0,0.0,32,0.00,CLR,,0.00,WeatherDisplay:10.37,2013-04-02 17:07:00,
2013-04-02 12:12:00,50.7,21.9,30.28,North,1,0.0,0.0,32,0.00,CLR,,0.00,WeatherDisplay:10.37,2013-04-02 17:12:00,
2013-04-02 12:17:00,50.9,22.1,30.28,North,1,0.0,0.0,32,0.00,CLR,,0.00,WeatherDisplay:10.37,2013-04-02 17:17:00,
2013-04-02 12:22:00,50.5,21.7,30.28,North,1,0.0,0.0,32,0.00,CLR,,0.00,WeatherDisplay:10.37,2013-04-02 17:22:00,
2013-04-02 12:27:00,50.4,21.6,30.28,North,1,0.0,0.0,32,0.00,CLR,,0.00,WeatherDisplay:10.37,2013-04-02 17:27:00,
2013-04-02 12:32:00,50.2,21.4,30.28,North,1,0.0,0.0,32,0.00,CLR,,0.00,WeatherDisplay:10.37,2013-04-02 17:32:00,
2013-04-02 12:37:00,50.2,20.7,30.27,North,1,0.0,0.0,31,0.00,CLR,,0.00,WeatherDisplay:10.37,2013-04-02 17:37:00,
2013-04-02 12:42:00,50.4,20.8,30.27,North,1,0.0,0.0,31,0.00,CLR,,0.00,WeatherDisplay:10.37,2013-04-02 17:42:00,
2013-04-02 12:47:00,50.4,20.8,30.27,North,1,0.0,0.0,31,0.00,CLR,,0.00,WeatherDisplay:10.37,2013-04-02 17:47:00,
2013-04-02 12:52:00,50.7,21.9,30.27,North,1,0.0,0.0,32,0.00,CLR,,0.00,WeatherDisplay:10.37,2013-04-02 17:52:00,
2013-04-02 12:58:00,51.4,21.8,30.27,North,1,0.0,0.0,31,0.00,CLR,,0.00,WeatherDisplay:10.37,2013-04-02 17:58:00,
2013-04-02 13:03:00,51.3,20.8,30.27,North,1,0.0,0.0,30,0.00,CLR,,0.00,WeatherDisplay:10.37,2013-04-02 18:03:00,
2013-04-02 13:08:00,51.1,20.7,30.27,North,1,0.0,0.0,30,0.00,CLR,,0.00,WeatherDisplay:10.37,2013-04-02 18:08:00,
2013-04-02 13:13:00,50.0,19.7,30.26,North,1,0.0,0.0,30,0.00,CLR,,0.00,WeatherDisplay:10.37,2013-04-02 18:13:00,
2013-04-02 13:18:00,49.5,20.0,30.27,North,1,0.0,0.0,31,0.00,CLR,,0.00,WeatherDisplay:10.37,2013-04-02 18:18:00,
2013-04-02 13:23:00,48.7,19.4,30.26,North,1,0.0,0.0,31,0.00,CLR,,0.00,WeatherDisplay:10.37,2013-04-02 18:23:00,
2013-04-02 13:28:00,48.7,20.2,30.26,North,1,0.0,0.0,32,0.00,CLR,,0.00,WeatherDisplay:10.37,2013-04-02 18:28:00,
2013-04-02 13:33:00,49.6,20.9,30.26,North,1,0.0,0.0,32,0.00,CLR,,0.00,WeatherDisplay:10.37,2013-04-02 18:33:00,
2013-04-02 13:38:00,50.0,20.5,30.26,North,1,0.0,0.0,31,0.00,CLR,,0.00,WeatherDisplay:10.37,2013-04-02 18:38:00,
2013-04-02 13:43:00,49.6,20.2,30.26,North,1,0.0,0.0,31,0.00,CLR,,0.00,WeatherDisplay:10.37,2013-04-02 18:43:00,
2013-04-02 13:48:00,49.5,20.0,30.26,North,1,0.0,0.0,31,0.00,CLR,,0.00,WeatherDisplay:10.37,2013-04-02 18:48:00,
2013-04-02 13:53:00,49.6,20.2,30.26,North,1,0.0,0.0,31,0.00,CLR,,0.00,WeatherDisplay:10.37,2013-04-02 18:53:00,
2013-04-02 13:58:00,49.6,20.2,30.25,North,1,0.0,0.0,31,0.00,CLR,,0.00,WeatherDisplay:10.37,2013-04-02 18:58:00,
2013-04-02 14:03:00,50.0,20.5,30.25,North,1,0.0,0.0,31,0.00,CLR,,0.00,WeatherDisplay:10.37,2013-04-02 19:03:00,
2013-04-02 14:08:00,50.5,21.0,30.25,North,1,0.0,0.0,31,0.00,CLR,,0.00,WeatherDisplay:10.37,2013-04-02 19:08:00,
2013-04-02 14:13:00,50.4,20.1,30.26,North,1,0.0,0.0,30,0.00,CLR,,0.00,WeatherDisplay:10.37,2013-04-02 19:13:00,
2013-04-02 14:18:00,50.2,20.7,30.25,North,1,0.0,0.0,31,0.00,CLR,,0.00,WeatherDisplay:10.37,2013-04-02 19:18:00,
2013-04-02 14:24:00,50.4,20.8,30.25,North,1,0.0,0.0,31,0.00,CLR,,0.00,WeatherDisplay:10.37,2013-04-02 19:24:00,
2013-04-02 14:29:00,50.0,20.5,30.25,North,1,0.0,0.0,31,0.00,CLR,,0.00,WeatherDisplay:10.37,2013-04-02 19:29:00,
2013-04-02 14:34:00,50.0,20.5,30.25,North,1,0.0,0.0,31,0.00,CLR,,0.00,WeatherDisplay:10.37,2013-04-02 19:34:00,
2013-04-02 14:39:00,50.0,20.5,30.24,North,1,0.0,0.0,31,0.00,CLR,,0.00,WeatherDisplay:10.37,2013-04-02 19:39:00,
2013-04-02 14:44:00,49.6,20.2,30.24,North,1,0.0,0.0,31,0.00,CLR,,0.00,WeatherDisplay:10.37,2013-04-02 19:44:00,
2013-04-02 14:49:00,50.0,20.5,30.24,North,1,0.0,0.0,31,0.00,CLR,,0.00,WeatherDisplay:10.37,2013-04-02 19:49:00,
2013-04-02 14:54:00,49.6,20.2,30.24,North,1,0.0,0.0,31,0.00,CLR,,0.00,WeatherDisplay:10.37,2013-04-02 19:54:00,
2013-04-02 14:59:00,49.6,20.2,30.24,North,1,0.0,0.0,31,0.00,CLR,,0.00,WeatherDisplay:10.37,2013-04-02 19:59:00,
2013-04-02 15:04:00,49.6,20.2,30.24,North,1,0.0,0.0,31,0.00,CLR,,0.00,WeatherDisplay:10.37,2013-04-02 20:04:00,
2013-04-02 15:09:00,49.8,20.4,30.23,North,1,0.0,0.0,31,0.00,CLR,,0.00,WeatherDisplay:10.37,2013-04-02 20:09:00,
2013-04-02 15:14:00,49.6,20.2,30.23,North,1,0.0,0.0,31,0.00,CLR,,0.00,WeatherDisplay:10.37,2013-04-02 20:14:00,
2013-04-02 15:19:00,49.5,20.0,30.23,North,1,0.0,0.0,31,0.00,CLR,,0.00,WeatherDisplay:10.37,2013-04-02 20:19:00,
2013-04-02 15:24:00,49.6,20.2,30.23,North,1,0.0,0.0,31,0.00,CLR,,0.00,WeatherDisplay:10.37,2013-04-02 20:24:00,
2013-04-02 15:29:00,49.5,20.0,30.23,North,1,0.0,0.0,31,0.00,CLR,,0.00,WeatherDisplay:10.37,2013-04-02 20:29:00,
2013-04-02 15:34:00,49.5,20.0,30.23,North,1,0.0,0.0,31,0.00,CLR,,0.00,WeatherDisplay:10.37,2013-04-02 20:34:00,
2013-04-02 15:39:00,49.5,20.0,30.23,North,1,0.0,0.0,31,0.00,CLR,,0.00,WeatherDisplay:10.37,2013-04-02 20:39:00,
2013-04-02 15:44:00,49.5,20.0,30.23,North,1,0.0,0.0,31,0.00,CLR,,0.00,WeatherDisplay:10.37,2013-04-02 20:44:00,
2013-04-02 15:49:00,49.6,20.2,30.22,North,1,0.0,0.0,31,0.00,CLR,,0.00,WeatherDisplay:10.37,2013-04-02 20:49:00,
2013-04-02 15:54:00,49.6,20.2,30.22,North,1,0.0,0.0,31,0.00,CLR,,0.00,WeatherDisplay:10.37,2013-04-02 20:54:00,
2013-04-02 15:59:00,48.9,18.8,30.22,North,1,0.0,0.0,30,0.00,CLR,,0.00,WeatherDisplay:10.37,2013-04-02 20:59:00,
2013-04-02 16:05:00,48.6,19.3,30.22,North,1,0.0,0.0,31,0.00,CLR,,0.00,WeatherDisplay:10.37,2013-04-02 21:05:00,
2013-04-02 16:10:00,48.4,19.1,30.22,North,1,0.0,0.0,31,0.00,CLR,,0.00,WeatherDisplay:10.37,2013-04-02 21:10:00,
2013-04-02 16:15:00,48.2,18.9,30.22,North,1,0.0,0.0,31,0.00,CLR,,0.00,WeatherDisplay:10.37,2013-04-02 21:15:00,
2013-04-02 16:20:00,48.2,18.9,30.22,North,1,0.0,0.0,31,0.00,CLR,,0.00,WeatherDisplay:10.37,2013-04-02 21:20:00,
2013-04-02 16:25:00,47.8,18.6,30.22,North,1,0.0,0.0,31,0.00,CLR,,0.00,WeatherDisplay:10.37,2013-04-02 21:25:00,
2013-04-02 16:30:00,47.8,19.4,30.22,North,1,0.0,0.0,32,0.00,CLR,,0.00,WeatherDisplay:10.37,2013-04-02 21:30:00,
2013-04-02 16:35:00,47.8,19.4,30.22,North,1,0.0,0.0,32,0.00,CLR,,0.00,WeatherDisplay:10.37,2013-04-02 21:35:00,
2013-04-02 16:40:00,48.7,19.4,30.21,North,1,0.0,0.0,31,0.00,CLR,,0.00,WeatherDisplay:10.37,2013-04-02 21:40:00,
2013-04-02 16:45:00,48.7,19.4,30.21,North,1,0.0,0.0,31,0.00,CLR,,0.00,WeatherDisplay:10.37,2013-04-02 21:45:00,
2013-04-02 16:50:00,48.4,19.1,30.21,North,1,0.0,0.0,31,0.00,CLR,,0.00,WeatherDisplay:10.37,2013-04-02 21:50:00,
2013-04-02 16:55:00,48.2,18.9,30.22,North,1,0.0,0.0,31,0.00,CLR,,0.00,WeatherDisplay:10.37,2013-04-02 21:55:00,
2013-04-02 17:00:00,48.2,18.9,30.21,North,1,0.0,0.0,31,0.00,CLR,,0.00,WeatherDisplay:10.37,2013-04-02 22:00:00,
2013-04-02 17:05:00,47.7,18.5,30.21,North,1,0.0,0.0,31,0.00,CLR,,0.00,WeatherDisplay:10.37,2013-04-02 22:05:00,
2013-04-02 17:10:00,47.3,18.1,30.21,North,1,0.0,0.0,31,0.00,CLR,,0.00,WeatherDisplay:10.37,2013-04-02 22:10:00,
2013-04-02 17:15:00,46.9,18.6,30.21,North,1,0.0,0.0,32,0.00,CLR,,0.00,WeatherDisplay:10.37,2013-04-02 22:15:00,
2013-04-02 17:20:00,46.8,18.4,30.21,North,1,0.0,0.0,32,0.00,CLR,,0.00,WeatherDisplay:10.37,2013-04-02 22:20:00,
2013-04-02 17:25:00,46.6,18.3,30.21,North,1,0.0,0.0,32,0.00,CLR,,0.00,WeatherDisplay:10.37,2013-04-02 22:25:00,
2013-04-02 17:30:00,46.2,17.9,30.21,North,1,0.0,0.0,32,0.00,CLR,,0.00,WeatherDisplay:10.37,2013-04-02 22:30:00,
2013-04-02 17:35:00,46.0,17.8,30.21,North,1,0.0,0.0,32,0.00,CLR,,0.00,WeatherDisplay:10.37,2013-04-02 22:35:00,
2013-04-02 17:40:00,46.0,17.8,30.21,North,1,0.0,0.0,32,0.00,CLR,,0.00,WeatherDisplay:10.37,2013-04-02 22:40:00,
2013-04-02 17:45:00,45.9,18.3,30.20,North,1,0.0,0.0,33,0.00,CLR,,0.00,WeatherDisplay:10.37,2013-04-02 22:45:00,
2013-04-02 17:50:00,45.7,18.2,30.20,North,1,0.0,0.0,33,0.00,CLR,,0.00,WeatherDisplay:10.37,2013-04-02 22:50:00,
2013-04-02 17:55:00,45.7,18.2,30.20,North,1,0.0,0.0,33,0.00,CLR,,0.00,WeatherDisplay:10.37,2013-04-02 22:55:00,
2013-04-02 18:01:00,45.5,18.0,30.20,North,1,0.0,0.0,33,0.00,CLR,,0.00,WeatherDisplay:10.37,2013-04-02 23:01:00,
2013-04-02 18:06:00,45.1,17.7,30.20,North,1,0.0,0.0,33,0.00,CLR,,0.00,WeatherDisplay:10.37,2013-04-02 23:06:00,
2013-04-02 18:11:00,45.0,18.2,30.21,North,1,0.0,0.0,34,0.00,CLR,,0.00,WeatherDisplay:10.37,2013-04-02 23:11:00,
2013-04-02 18:16:00,45.0,18.2,30.21,North,1,0.0,0.0,34,0.00,CLR,,0.00,WeatherDisplay:10.37,2013-04-02 23:16:00,
2013-04-02 18:21:00,44.6,17.9,30.21,North,1,0.0,0.0,34,0.00,CLR,,0.00,WeatherDisplay:10.37,2013-04-02 23:21:00,
2013-04-02 18:27:00,44.1,17.4,30.21,North,1,0.0,0.0,34,0.00,CLR,,0.00,WeatherDisplay:10.37,2013-04-02 23:27:00,
2013-04-02 18:32:00,43.7,17.1,30.20,North,1,0.0,0.0,34,0.00,CLR,,0.00,WeatherDisplay:10.37,2013-04-02 23:32:00,
2013-04-02 18:37:00,43.7,17.1,30.20,North,1,0.0,0.0,34,0.00,CLR,,0.00,WeatherDisplay:10.37,2013-04-02 23:37:00,
2013-04-02 18:42:00,43.3,17.5,30.21,North,1,0.0,0.0,35,0.00,CLR,,0.00,WeatherDisplay:10.37,2013-04-02 23:42:00,
2013-04-02 18:47:00,43.2,17.3,30.21,North,1,0.0,0.0,35,0.00,CLR,,0.00,WeatherDisplay:10.37,2013-04-02 23:47:00,
2013-04-02 18:52:00,43.0,17.2,30.21,North,1,0.0,0.0,35,0.00,CLR,,0.00,WeatherDisplay:10.37,2013-04-02 23:52:00,
2013-04-02 18:57:00,42.6,16.8,30.20,North,1,0.0,0.0,35,0.00,CLR,,0.00,WeatherDisplay:10.37,2013-04-02 23:57:00,
2013-04-02 19:02:00,42.4,17.3,30.21,North,1,0.0,0.0,36,0.00,CLR,,0.00,WeatherDisplay:10.37,2013-04-03 00:02:00,
2013-04-02 19:07:00,42.3,17.2,30.21,North,1,0.0,0.0,36,0.00,CLR,,0.00,WeatherDisplay:10.37,2013-04-03 00:07:00,
2013-04-02 19:12:00,42.1,17.0,30.20,North,1,0.0,0.0,36,0.00,CLR,,0.00,WeatherDisplay:10.37,2013-04-03 00:12:00,
2013-04-02 19:17:00,41.9,17.5,30.20,North,1,0.0,0.0,37,0.00,CLR,,0.00,WeatherDisplay:10.37,2013-04-03 00:17:00,
2013-04-02 19:22:00,41.7,17.3,30.20,North,1,0.0,0.0,37,0.00,CLR,,0.00,WeatherDisplay:10.37,2013-04-03 00:22:00,
2013-04-02 19:28:00,41.5,17.2,30.20,North,1,0.0,0.0,37,0.00,CLR,,0.00,WeatherDisplay:10.37,2013-04-03 00:28:00,
2013-04-02 19:33:00,41.4,17.0,30.20,North,1,0.0,0.0,37,0.00,CLR,,0.00,WeatherDisplay:10.37,2013-04-03 00:33:00,
2013-04-02 19:38:00,41.0,17.3,30.21,North,1,0.0,0.0,38,0.00,CLR,,0.00,WeatherDisplay:10.37,2013-04-03 00:38:00,
2013-04-02 19:43:00,40.6,17.0,30.21,North,1,0.0,0.0,38,0.00,CLR,,0.00,WeatherDisplay:10.37,2013-04-03 00:43:00,
2013-04-02 19:48:00,40.5,17.4,30.21,North,1,0.0,0.0,39,0.00,CLR,,0.00,WeatherDisplay:10.37,2013-04-03 00:48:00,
2013-04-02 19:53:00,40.3,17.3,30.21,North,1,0.0,0.0,39,0.00,CLR,,0.00,WeatherDisplay:10.37,2013-04-03 00:53:00,
2013-04-02 19:58:00,40.1,17.7,30.21,North,1,0.0,0.0,40,0.00,CLR,,0.00,WeatherDisplay:10.37,2013-04-03 00:58:00,
2013-04-02 20:03:00,39.7,17.4,30.21,North,1,0.0,0.0,40,0.00,CLR,,0.00,WeatherDisplay:10.37,2013-04-03 01:03:00,
2013-04-02 20:08:00,39.6,17.2,30.21,North,1,0.0,0.0,40,0.00,CLR,,0.00,WeatherDisplay:10.37,2013-04-03 01:08:00,
2013-04-02 20:13:00,39.6,17.2,30.21,North,1,0.0,0.0,40,0.00,CLR,,0.00,WeatherDisplay:10.37,2013-04-03 01:13:00,
2013-04-02 20:18:00,39.4,17.0,30.21,North,1,0.0,0.0,40,0.00,CLR,,0.00,WeatherDisplay:10.37,2013-04-03 01:18:00,
2013-04-02 20:23:00,39.2,16.9,30.21,North,1,0.0,0.0,40,0.00,CLR,,0.00,WeatherDisplay:10.37,2013-04-03 01:23:00,
2013-04-02 20:28:00,39.2,17.4,30.21,North,1,0.0,0.0,41,0.00,CLR,,0.00,WeatherDisplay:10.37,2013-04-03 01:28:00,
2013-04-02 20:33:00,38.8,17.1,30.21,North,1,0.0,0.0,41,0.00,CLR,,0.00,WeatherDisplay:10.37,2013-04-03 01:33:00,
2013-04-02 20:38:00,38.7,17.0,30.21,North,1,0.0,0.0,41,0.00,CLR,,0.00,WeatherDisplay:10.37,2013-04-03 01:38:00,
2013-04-02 20:43:00,38.7,17.0,30.22,North,1,0.0,0.0,41,0.00,CLR,,0.00,WeatherDisplay:10.37,2013-04-03 01:43:00,
2013-04-02 20:48:00,38.1,16.5,30.22,North,1,0.0,0.0,41,0.00,CLR,,0.00,WeatherDisplay:10.37,2013-04-03 01:48:00,
2013-04-02 20:53:00,37.9,16.9,30.22,North,1,0.0,0.0,42,0.00,CLR,,0.00,WeatherDisplay:10.37,2013-04-03 01:53:00,
2013-04-02 20:58:00,37.8,16.7,30.22,North,1,0.0,0.0,42,0.00,CLR,,0.00,WeatherDisplay:10.37,2013-04-03 01:58:00,
2013-04-02 21:04:00,37.6,16.5,30.22,North,1,0.0,0.0,42,0.00,CLR,,0.00,WeatherDisplay:10.37,2013-04-03 02:04:00,
2013-04-02 21:09:00,37.4,16.9,30.22,North,1,0.0,0.0,43,0.00,CLR,,0.00,WeatherDisplay:10.37,2013-04-03 02:09:00,
2013-04-02 21:14:00,37.4,16.9,30.23,North,1,0.0,0.0,43,0.00,CLR,,0.00,WeatherDisplay:10.37,2013-04-03 02:14:00,
2013-04-02 21:19:00,37.0,16.6,30.23,North,1,0.0,0.0,43,0.00,CLR,,0.00,WeatherDisplay:10.37,2013-04-03 02:19:00,
2013-04-02 21:24:00,37.0,17.1,30.23,North,1,0.0,0.0,44,0.00,CLR,,0.00,WeatherDisplay:10.37,2013-04-03 02:24:00,
2013-04-02 21:29:00,36.9,17.0,30.23,North,1,0.0,0.0,44,0.00,CLR,,0.00,WeatherDisplay:10.37,2013-04-03 02:29:00,
2013-04-02 21:34:00,36.7,16.8,30.23,North,1,0.0,0.0,44,0.00,CLR,,0.00,WeatherDisplay:10.37,2013-04-03 02:34:00,
2013-04-02 21:39:00,36.5,16.6,30.23,North,1,0.0,0.0,44,0.00,CLR,,0.00,WeatherDisplay:10.37,2013-04-03 02:39:00,
2013-04-02 21:44:00,36.5,17.1,30.23,North,1,0.0,0.0,45,0.00,CLR,,0.00,WeatherDisplay:10.37,2013-04-03 02:44:00,
2013-04-02 21:49:00,36.3,17.0,30.23,North,1,0.0,0.0,45,0.00,CLR,,0.00,WeatherDisplay:10.37,2013-04-03 02:49:00,
2013-04-02 21:54:00,36.1,16.8,30.23,North,1,0.0,0.0,45,0.00,CLR,,0.00,WeatherDisplay:10.37,2013-04-03 02:54:00,
2013-04-02 21:59:00,36.0,17.2,30.23,North,1,0.0,0.0,46,0.00,CLR,,0.00,WeatherDisplay:10.37,2013-04-03 02:59:00,
2013-04-02 22:04:00,36.0,17.2,30.24,North,1,0.0,0.0,46,0.00,CLR,,0.00,WeatherDisplay:10.37,2013-04-03 03:04:00,
2013-04-02 22:09:00,35.8,17.0,30.24,North,1,0.0,0.0,46,0.00,CLR,,0.00,WeatherDisplay:10.37,2013-04-03 03:09:00,
2013-04-02 22:14:00,35.6,16.8,30.24,North,1,0.0,0.0,46,0.00,CLR,,0.00,WeatherDisplay:10.37,2013-04-03 03:14:00,
2013-04-02 22:19:00,35.4,16.7,30.24,North,1,0.0,0.0,46,0.00,CLR,,0.00,WeatherDisplay:10.37,2013-04-03 03:19:00,
2013-04-02 22:24:00,35.2,16.5,30.24,North,1,0.0,0.0,46,0.00,CLR,,0.00,WeatherDisplay:10.37,2013-04-03 03:24:00,
2013-04-02 22:29:00,35.2,17.0,30.24,North,1,0.0,0.0,47,0.00,CLR,,0.00,WeatherDisplay:10.37,2013-04-03 03:29:00,
2013-04-02 22:35:00,35.2,17.0,30.24,North,1,0.0,0.0,47,0.00,CLR,,0.00,WeatherDisplay:10.37,2013-04-03 03:35:00,
2013-04-02 22:40:00,35.1,16.8,30.24,North,1,0.0,0.0,47,0.00,CLR,,0.00,WeatherDisplay:10.37,2013-04-03 03:40:00,
2013-04-02 22:45:00,35.1,16.8,30.24,North,1,0.0,0.0,47,0.00,CLR,,0.00,WeatherDisplay:10.37,2013-04-03 03:45:00,
2013-04-02 22:50:00,35.1,16.8,30.23,North,1,0.0,0.0,47,0.00,CLR,,0.00,WeatherDisplay:10.37,2013-04-03 03:50:00,
2013-04-02 22:55:00,35.1,16.8,30.23,North,1,0.0,0.0,47,0.00,CLR,,0.00,WeatherDisplay:10.37,2013-04-03 03:55:00,
2013-04-02 23:00:00,34.3,16.7,30.24,North,1,0.0,0.0,48,0.00,CLR,,0.00,WeatherDisplay:10.37,2013-04-03 04:00:00,
2013-04-02 23:05:00,34.3,16.7,30.24,North,1,0.0,0.0,48,0.00,CLR,,0.00,WeatherDisplay:10.37,2013-04-03 04:05:00,
2013-04-02 23:10:00,34.3,16.7,30.24,North,1,0.0,0.0,48,0.00,CLR,,0.00,WeatherDisplay:10.37,2013-04-03 04:10:00,
2013-04-02 23:15:00,34.3,16.7,30.23,North,1,0.0,0.0,48,0.00,CLR,,0.00,WeatherDisplay:10.37,2013-04-03 04:15:00,
2013-04-02 23:20:00,34.3,16.7,30.24,North,1,0.0,0.0,48,0.00,CLR,,0.00,WeatherDisplay:10.37,2013-04-03 04:20:00,
2013-04-02 23:25:00,34.2,16.5,30.24,North,1,0.0,0.0,48,0.00,CLR,,0.00,WeatherDisplay:10.37,2013-04-03 04:25:00,
2013-04-02 23:30:00,34.2,16.5,30.23,North,1,0.0,0.0,48,0.00,CLR,,0.00,WeatherDisplay:10.37,2013-04-03 04:30:00,
2013-04-02 23:35:00,34.2,16.5,30.24,North,1,0.0,0.0,48,0.00,CLR,,0.00,WeatherDisplay:10.37,2013-04-03 04:35:00,
2013-04-02 23:40:00,34.2,16.5,30.24,North,1,0.0,0.0,48,0.00,CLR,,0.00,WeatherDisplay:10.37,2013-04-03 04:40:00,
2013-04-02 23:45:00,34.2,16.5,30.24,North,1,0.0,0.0,48,0.00,CLR,,0.00,WeatherDisplay:10.37,2013-04-03 04:45:00,
2013-04-02 23:50:00,34.0,16.3,30.24,North,1,0.0,0.0,48,0.00,CLR,,0.00,WeatherDisplay:10.37,2013-04-03 04:50:00,
2013-04-02 23:55:00,34.0,16.3,30.24,North,1,0.0,0.0,48,0.00,CLR,,0.00,WeatherDisplay:10.37,2013-04-03 04:55:00,